ZHONGXING-26

Last updated on Tue Sep 22 2026 00:03:16 GMT+0000 (Coordinated Universal Time)

1 55686U 23023A 26264.71076167 -.00000357 00000+0 00000+0 0 9999 2 55686 0.0574 68.0857 0002581 56.9200 256.5630 1.00275065 13197
UTC large
Height (km)
Speed (km/s)
/
Latitude / Longitude
Inclination (degrees)
Orbital Period (minutes)
Azimuth
Elevation
Range (km)
Doppler Factor

Next 0 passes for location: London (51.5072 / 0.1276)

No passes found over London.
ZHONGXING-26